User: anonymous   Login
Location: Sunrise Point
(46.9200°N, 121.5900°W)
Time: 07:52:03
(UTC-08:00)
Language:

Cosmos 2058 - Orbit

View from above orbital plane
View from above orbital plane
View from above satellite
View from above satellite

Ground track
Ground track

The orbit data is extracted from the following two-line orbital elements,

1 20465U 90010A   14352.57972823  .00003111  00000-0  27691-3 0  3072
2 20465 082.4917 043.4807 0017798 121.2104 239.0865 14.95642795348964
Epoch (UTC): 18 December 2014 13:54:48
Eccentricity: 0.0017798
inclination: 82.4917°
perigee height: 568 km
apogee height: 593 km
right ascension of ascending node: 43.4807°
argument of perigee: 121.2104°
revolutions per day: 14.95642795
mean anomaly at epoch: 239.0865°
orbit number at epoch: 34896

The dashed part of the orbit path shows where the satellite is in the earth's shadow,  

DLR